GLOBALSTAR M015 (25308 NORAD) Tracking and Keplerian Element Data

This shows tracking and keplerian element data for the satellite.

Feedback or suggestion? Click here.




ElementValue
Catalog25308
NameGLOBALSTAR M015
Epoch Orbit17876
Epoch Day34.9198551
Epoch Year2025
RAAN280.2354
Inclination51.9819
Eccentricity0.0012126
Argument of Perigee195.5836
Mean Anonmoly178.4656
Mean Motion11.48857688
Decay Rate-6.7E-07
L11 25308U 98023C 25034.91985510 -.00000067 00000+0 13585-3 0 9990
L22 25308 51.9819 280.2354 0012126 195.5836 178.4656 11.48857688178768



Live tracking and technical data element details for GLOBALSTAR M015 (NORAD 25308). GLOBALSTAR M015 can be tracked NOW for your location showing map with azimuth and elevation plus other details from your city location.







IsCatalogInMostPopularTable: catalog: 25308, numindb: 420
Update: records affected: 1



GetName: 25308 GLOBALSTAR M015

Hit Count: updated at: Thu, 22 May 2025 03:46:04 GMT